Theta_e
339 339 337 337 336 337 336 336 336 336 337 337 338 338 338 337 338 338 337 336 336 336 337 339 339 338 337 337 337 338 338 336 335 336 337 336 336 338 342 345 351 351 350 349 349 348 348 347 345 344 343 342 341 339 338 338 337 335 337 334 334 333 332 332 333 332 331 330 329 330 330 330 330 331 331 332 333 335 335 336 335 335 336 335 334
339 339 338 337 336 335 336 335 336 335 337 336 337 338 337 337 336 337 337 336 336 337 342 339 337 337 337 339 339 339 339 336 336 337 337 336 336 340 343 347 351 351 350 349 349 349 349 349 347 345 344 343 342 341 340 339 338 336 335 334 336 333 333 332 333 332 331 331 331 330 330 330 331 331 332 333 334 335 334 335 335 335 336 334 334
340 339 338 337 336 335 335 335 335 335 336 337 336 337 336 336 335 336 337 336 337 337 338 337 336 336 338 338 339 340 339 338 338 337 336 337 335 337 339 345 350 351 349 349 349 349 349 349 349 347 344 344 343 342 340 340 340 338 339 336 336 334 333 333 333 333 332 331 330 329 331 331 330 332 333 333 335 335 333 335 335 335 335 334 333
340 339 338 337 336 335 335 334 336 336 336 336 335 337 338 336 338 338 337 336 336 336 336 336 336 336 337 338 339 338 338 338 338 337 336 337 337 335 337 339 344 351 350 348 349 349 349 350 349 348 347 345 343 343 342 340 339 339 338 336 335 335 335 334 334 334 332 331 331 330 329 331 332 332 332 333 335 335 334 335 336 335 335 334 333
340 340 342 337 336 335 334 336 336 336 336 337 337 336 335 335 335 339 336 337 337 337 338 337 336 337 336 337 337 336 337 337 338 337 337 337 337 336 335 337 341 344 349 350 349 348 349 349 349 349 347 346 345 343 342 341 340 340 339 337 337 336 336 335 334 333 332 331 331 330 330 331 332 332 333 334 335 335 335 335 335 335 335 334 333
340 339 339 337 335 335 335 335 336 337 337 337 336 334 334 334 335 335 338 337 335 336 337 336 336 336 335 335 335 336 336 336 337 337 337 337 337 336 336 337 338 343 345 349 350 349 348 349 349 349 348 347 345 344 343 342 341 341 340 339 338 337 337 336 334 333 332 332 331 331 332 332 333 333 333 334 335 335 335 335 335 335 335 334 332
340 339 338 337 336 335 335 336 337 339 337 337 336 334 334 334 335 335 334 335 334 336 335 333 333 333 334 335 334 335 335 335 336 336 337 337 337 337 337 336 337 339 343 345 347 349 349 348 348 349 349 348 346 345 344 343 342 341 340 342 340 339 338 337 335 334 334 333 333 333 333 333 334 334 334 335 336 331 331 335 335 335 335 334 332
340 339 338 337 337 336 337 338 338 339 338 337 337 335 333 334 335 335 334 334 334 333 333 332 332 332 333 334 334 335 335 335 335 335 336 337 337 336 336 336 336 336 339 341 343 344 346 348 348 348 349 349 348 346 344 343 342 342 341 343 341 340 339 338 337 336 335 335 335 334 334 334 334 334 334 335 336 335 332 334 335 335 335 334 332
341 340 339 338 337 337 338 338 339 338 337 335 337 338 335 336 333 335 333 332 332 332 333 332 331 332 332 333 333 334 334 334 334 335 336 336 336 336 336 336 337 339 340 340 341 341 342 345 348 348 348 348 348 348 346 345 342 342 342 341 342 341 340 340 338 337 337 336 336 336 335 335 335 335 335 335 336 335 333 336 336 336 335 334 331
341 340 339 339 338 337 336 337 338 337 336 335 335 336 335 334 335 334 334 333 333 332 332 332 332 332 332 332 333 333 333 334 334 336 335 335 336 336 337 337 337 336 336 336 338 340 341 342 344 347 348 347 347 348 347 346 344 343 342 341 341 342 340 339 339 338 338 338 338 337 336 336 335 335 335 335 336 336 336 336 336 336 335 334 331
341 341 338 340 336 334 334 336 337 335 335 335 336 337 338 335 336 335 335 334 334 333 332 332 332 332 331 332 332 332 333 333 335 334 334 334 335 336 337 338 336 336 335 336 337 338 339 341 341 343 345 347 347 347 347 347 346 345 343 342 341 341 340 340 338 339 339 339 339 338 337 336 336 335 335 336 336 335 335 336 336 336 335 333 331
341 340 340 340 336 335 336 335 335 334 334 335 335 335 337 336 335 334 334 334 334 334 334 333 332 331 330 331 331 330 331 333 333 332 334 335 335 336 336 337 337 337 335 335 337 337 339 339 340 340 343 345 346 347 346 347 347 346 344 340 341 342 341 340 339 339 341 340 340 339 338 337 336 336 336 336 336 335 336 336 336 336 336 333 331
342 340 339 342 338 336 334 336 336 335 333 334 335 334 333 334 332 334 335 333 332 332 334 333 329 327 328 328 330 331 333 332 330 331 331 331 334 334 336 336 336 336 336 335 335 337 338 339 339 339 340 342 343 345 346 346 346 346 344 342 341 343 343 342 340 338 341 341 341 340 339 339 337 337 336 337 338 335 336 337 337 336 336 333 331
342 341 340 340 336 336 335 335 334 333 333 334 334 337 335 332 331 332 330 331 331 333 333 331 326 323 322 323 326 327 328 327 328 329 328 330 332 333 335 335 335 336 336 335 335 335 337 339 340 339 339 340 341 343 344 346 345 344 345 345 343 342 342 342 341 339 337 337 339 341 340 340 338 337 337 338 338 336 336 336 337 337 335 333 331
341 342 339 339 337 336 335 332 333 336 334 330 329 330 329 331 332 332 331 333 333 333 333 332 325 327 328 324 318 319 323 324 323 327 327 330 330 330 333 334 335 336 336 336 335 334 335 337 339 339 339 339 340 341 342 343 344 344 344 345 345 344 344 342 341 339 338 338 338 339 339 341 339 337 337 338 338 336 337 337 337 337 335 332 330
341 341 338 334 336 336 331 331 331 335 332 329 327 327 328 330 332 334 334 328 328 325 332 330 329 327 317 318 319 319 314 317 321 324 328 328 328 328 330 332 334 334 336 334 335 335 335 336 337 338 339 340 340 340 340 341 342 343 343 344 345 344 343 342 341 342 339 339 338 339 339 341 340 337 337 338 339 337 337 337 336 336 334 331 329
338 339 338 334 331 329 329 329 331 333 332 329 325 327 328 328 331 332 332 329 327 329 328 330 328 330 326 320 315 312 314 319 321 320 326 323 324 328 330 329 330 331 331 332 334 335 335 336 336 337 338 339 339 339 340 340 341 343 343 344 345 345 343 344 341 342 340 338 339 338 339 340 341 337 337 338 339 337 337 337 337 335 333 331 329
329 332 336 332 330 326 327 327 327 329 330 328 324 324 324 326 329 331 330 331 329 326 323 327 327 326 328 328 323 318 317 320 318 312 322 324 326 328 328 328 329 328 329 330 332 334 336 336 336 336 337 338 339 339 339 339 340 340 342 343 344 345 343 343 344 343 342 340 339 339 339 339 340 338 336 339 338 337 338 337 336 335 332 330 329
321 323 324 327 323 322 322 321 319 321 327 319 315 315 315 321 327 328 328 328 329 323 322 321 324 323 324 327 327 327 326 319 313 316 312 319 325 324 324 326 327 325 326 329 331 332 333 336 336 336 337 338 339 339 339 339 338 338 339 340 342 344 344 344 344 343 342 342 341 340 337 339 341 338 337 339 338 337 337 337 336 334 332 330 329
317 317 319 321 318 316 316 314 312 318 325 312 313 313 315 318 322 323 324 323 324 319 317 320 318 318 323 321 324 326 326 326 324 319 314 310 313 320 323 326 323 324 327 328 328 330 332 333 334 335 337 338 339 339 340 339 338 338 339 340 341 343 344 345 345 345 344 343 342 341 340 339 339 338 337 340 339 337 336 336 336 334 332 330 329
313 315 316 317 323 315 314 313 311 315 328 316 316 316 314 315 314 315 316 319 320 321 321 317 318 316 317 316 318 319 322 322 322 322 316 312 312 314 316 321 322 324 324 325 328 331 332 331 333 335 336 337 339 339 339 339 339 338 338 339 341 342 343 345 345 345 345 345 342 341 340 338 339 339 338 340 340 338 337 336 335 334 332 330 329
312 312 313 318 320 318 313 312 312 313 326 315 313 314 315 315 314 313 313 313 315 320 317 316 317 318 318 318 316 317 318 320 320 319 319 319 313 313 315 315 314 320 323 325 326 327 328 331 332 334 335 336 337 338 339 339 340 339 338 338 340 341 342 344 345 345 345 345 343 341 341 340 339 340 340 341 340 339 337 337 335 333 332 330 329
313 314 313 314 315 320 314 312 315 327 326 316 314 314 314 314 314 314 318 312 311 311 317 315 317 316 316 317 317 316 315 315 315 317 317 314 313 313 315 317 317 317 321 324 324 326 328 331 331 333 334 335 336 337 338 339 338 338 336 337 340 341 343 343 344 345 345 345 345 343 341 341 340 340 340 341 340 339 337 338 336 333 331 330 329
313 313 314 315 317 318 324 320 322 317 316 316 315 314 314 314 313 313 312 311 311 317 313 312 312 313 315 317 317 318 318 317 318 319 318 315 315 314 314 317 317 318 319 322 325 326 328 329 331 333 335 335 335 336 337 338 339 337 338 338 339 341 342 344 342 344 345 345 345 343 342 340 340 339 340 341 341 339 338 337 336 333 331 330 329
313 313 314 315 319 317 317 317 318 320 319 315 315 315 314 314 314 312 312 311 312 312 313 312 312 312 313 315 317 317 318 319 319 320 320 319 317 313 314 317 314 315 318 321 320 324 326 329 331 334 333 334 334 336 337 338 338 337 336 337 336 339 341 343 343 342 345 345 345 344 341 339 338 339 340 341 341 339 338 337 336 334 331 330 329
313 313 315 315 318 318 319 316 316 316 319 317 317 316 315 314 314 313 312 313 312 311 312 312 312 311 312 313 313 315 316 318 319 319 318 317 315 314 313 314 314 313 316 319 322 318 323 327 329 329 332 334 335 335 336 336 337 335 335 337 338 336 338 342 343 342 341 341 342 340 339 338 338 338 339 341 341 340 339 337 336 334 332 331 330
313 315 317 316 316 316 317 317 316 316 317 318 320 318 317 317 316 314 314 313 312 313 312 311 311 311 311 312 313 313 314 315 318 318 320 318 317 316 315 310 310 312 311 315 317 319 318 323 327 330 332 335 337 336 336 337 335 333 333 337 338 333 332 336 341 343 342 341 342 341 341 339 338 339 340 341 341 341 337 336 335 334 333 331 331
314 315 315 316 315 315 317 317 316 315 316 316 315 316 316 315 315 315 314 317 314 312 312 312 311 312 312 312 311 311 313 314 316 317 319 320 320 319 318 315 310 306 310 309 314 313 320 321 327 329 332 333 336 337 335 335 337 333 333 337 338 336 330 331 336 341 342 342 343 342 342 338 338 339 339 340 338 337 336 336 335 334 333 332 331
313 316 314 315 314 314 314 315 315 315 315 315 315 315 314 315 316 314 313 314 315 314 314 313 313 312 312 312 312 312 312 313 314 317 317 319 320 320 320 317 315 310 308 307 308 310 316 321 319 326 330 334 335 337 336 336 334 335 337 337 337 338 331 326 328 332 338 343 343 342 341 340 339 339 338 337 338 336 337 337 336 335 334 333 332
314 316 315 314 314 321 314 314 314 314 315 314 315 314 314 314 314 314 314 314 314 315 315 314 314 313 314 313 313 312 314 313 313 314 315 316 318 318 319 320 319 314 313 309 309 313 314 321 324 325 329 327 331 330 331 333 331 333 337 337 337 337 328 324 324 327 332 335 336 339 341 341 339 340 339 338 338 339 338 337 336 335 334 333 331
317 316 315 314 314 315 315 315 314 315 314 313 314 313 313 313 314 314 314 313 313 313 313 314 314 314 313 312 313 312 313 313 313 313 315 316 316 316 317 318 319 318 315 313 308 314 319 315 321 327 326 327 329 330 331 333 332 332 336 337 337 331 328 330 324 324 324 325 327 328 332 339 337 340 339 339 338 338 339 337 337 336 334 332 327
314 314 314 314 314 313 313 313 313 313 313 313 314 314 313 313 313 314 314 313 312 312 313 314 313 314 313 312 313 313 313 313 312 313 313 313 314 315 315 316 318 318 318 315 312 311 317 318 319 320 325 327 329 329 330 332 332 328 336 336 337 328 334 336 327 323 322 321 322 324 325 332 337 338 339 338 338 339 336 336 335 334 331 326 323
313 313 313 313 313 314 313 315 314 313 313 312 312 312 312 312 311 312 312 311 311 312 313 312 313 313 313 312 312 312 313 312 313 313 313 313 313 314 315 316 316 317 317 315 312 312 314 322 322 322 325 327 327 330 329 330 332 334 331 336 336 336 336 337 337 324 321 320 319 319 319 322 328 333 334 335 334 330 329 330 327 325 325 324 322
313 313 312 313 314 313 313 313 313 312 311 311 310 310 310 310 310 310 310 310 310 310 310 310 311 312 312 311 311 312 313 312 312 312 312 312 312 312 312 314 314 315 317 316 315 314 311 315 319 322 322 327 325 330 326 328 329 332 334 335 336 336 336 337 336 337 322 320 319 318 317 317 320 322 325 331 328 320 319 321 321 322 324 323 320
314 313 313 313 313 312 312 312 311 311 310 310 310 309 309 309 309 309 310 309 309 309 308 309 309 310 310 311 311 312 312 312 312 312 313 312 312 312 312 313 312 313 315 317 315 312 312 312 317 319 320 324 324 324 326 329 331 332 331 333 334 335 336 337 336 337 323 319 318 317 316 316 317 319 321 326 324 318 318 319 317 317 317 316 316
312 314 313 313 312 312 311 311 310 309 309 309 309 309 309 309 308 308 308 308 308 309 308 308 308 309 309 309 310 310 311 311 311 311 312 312 311 312 311 312 312 312 313 314 316 314 314 312 315 317 320 320 322 327 327 329 330 331 332 333 334 334 335 336 336 336 330 319 318 316 315 315 316 316 318 319 319 317 317 317 316 316 315 314 313
312 312 314 312 310 309 309 309 309 308 308 308 308 308 309 309 308 308 308 308 308 308 308 308 311 309 309 309 309 309 310 309 310 310 310 310 310 311 310 311 312 312 312 313 314 315 314 312 313 317 322 321 323 323 326 327 328 329 331 331 332 333 334 335 335 337 326 320 318 317 315 315 316 315 316 317 318 317 316 316 315 314 313 312 312
312 311 311 310 310 308 308 308 308 308 308 308 308 308 308 308 308 308 308 308 308 308 308 308 308 309 309 308 309 309 308 308 308 309 309 309 310 309 310 310 311 311 311 312 313 313 314 314 314 314 317 318 318 320 324 327 326 326 327 329 332 333 332 332 334 336 336 334 329 326 316 315 315 314 315 316 317 316 316 315 314 314 313 312 311
310 309 308 307 310 309 308 308 308 308 308 308 307 307 307 307 307 307 307 307 307 307 307 307 307 307 308 308 309 309 308 308 308 308 309 309 309 309 311 310 311 311 310 311 312 311 312 312 312 314 315 318 319 317 323 328 328 327 324 324 325 330 332 331 330 333 334 332 326 323 324 322 319 319 316 315 315 315 315 314 314 314 313 312 311
307 306 306 306 307 308 308 307 307 308 307 306 306 306 306 306 307 306 306 306 306 306 307 307 307 307 307 308 308 309 309 309 308 308 308 308 308 308 310 311 311 310 310 311 311 311 311 311 312 312 314 315 317 319 323 325 324 324 327 325 322 323 327 330 332 331 330 330 328 327 322 321 319 318 317 316 317 317 316 315 314 315 315 313 311
307 307 306 305 305 305 306 305 305 305 306 306 306 306 306 305 306 305 306 306 306 306 306 306 306 307 307 308 308 308 310 313 313 313 311 311 308 307 308 310 310 310 310 311 311 311 311 311 310 312 312 313 315 315 315 316 317 316 322 325 323 325 327 328 329 329 329 329 329 327 326 325 323 322 322 322 322 320 319 318 317 316 315 313 311
304 306 305 306 305 304 303 303 304 304 304 305 307 308 307 308 306 305 305 305 305 305 306 306 306 306 306 307 309 312 312 313 314 312 310 310 312 312 309 308 309 310 310 310 310 310 309 308 308 309 309 309 312 313 313 316 318 321 322 324 322 324 325 325 327 326 326 327 326 324 325 326 325 322 323 323 323 325 323 323 323 321 315 311 309
304 305 305 303 303 303 303 303 303 303 304 305 306 300 299 301 307 307 306 305 305 305 305 305 305 306 306 306 307 310 312 314 314 311 308 307 307 307 310 313 313 311 310 309 309 310 309 308 309 310 310 310 312 314 315 316 318 320 322 324 323 323 321 319 317 322 323 325 325 324 323 325 325 321 323 323 323 326 326 326 317 315 312 310 309
303 304 303 302 301 302 302 302 302 303 304 305 299 299 299 298 302 306 306 306 306 305 305 305 305 305 306 306 307 307 308 309 309 310 310 309 306 305 305 305 306 308 309 311 309 308 309 308 308 309 309 308 310 313 314 315 317 320 323 323 322 321 320 319 319 319 324 326 325 323 322 324 326 325 323 323 324 326 326 321 313 313 310 309 309
301 301 301 301 300 300 301 300 301 302 303 302 298 299 298 297 297 302 304 304 305 305 305 305 305 305 305 306 306 306 306 311 312 311 310 310 309 307 307 306 306 304 299 298 303 311 309 308 306 306 308 310 309 311 314 315 318 317 321 321 321 322 322 320 321 322 323 324 325 322 322 322 324 322 322 323 324 326 325 316 312 311 310 308 308
300 300 300 299 299 300 300 300 300 301 301 302 298 298 298 297 297 298 302 302 303 303 304 305 305 305 305 305 305 305 307 308 309 309 309 310 309 310 310 310 309 310 307 303 301 301 307 309 307 306 309 312 310 312 316 316 317 316 317 317 320 320 320 320 324 325 324 324 323 322 320 321 324 323 322 322 325 326 326 317 311 310 309 308 307
298 298 298 298 299 301 300 300 300 300 300 300 297 297 296 296 296 298 301 302 302 302 303 303 304 304 304 304 305 304 305 306 307 308 307 307 307 307 307 307 307 307 307 308 308 309 309 308 309 309 310 312 312 313 314 317 318 318 319 318 320 321 323 325 324 322 321 323 324 323 318 321 324 323 323 322 324 326 326 312 309 309 308 307 307
299 299 299 299 299 299 299 299 299 299 300 297 296 296 296 296 296 301 301 301 301 302 302 303 303 303 304 304 304 304 304 305 307 303 306 308 306 305 305 305 305 306 307 309 305 306 311 310 310 310 311 312 309 313 315 316 317 320 321 323 325 323 321 319 317 320 320 322 323 322 320 320 323 322 322 323 324 323 321 317 309 309 308 307 306
297 297 297 298 299 298 299 299 299 298 299 298 295 295 295 295 296 300 300 301 301 301 302 303 303 304 304 304 304 304 304 304 303 298 297 304 305 305 304 304 305 305 305 307 304 300 300 300 301 301 301 301 301 301 301 302 310 317 320 318 316 318 316 314 316 317 318 321 321 321 320 317 320 322 320 321 322 320 318 316 314 309 307 306 306
296 296 297 298 298 299 299 298 298 298 298 299 296 295 295 295 298 300 301 301 301 301 302 303 304 304 304 308 308 305 304 304 300 297 297 302 304 304 303 303 303 303 304 306 307 307 301 299 298 298 298 298 299 299 300 300 300 304 314 312 314 317 313 315 314 315 318 319 320 323 317 317 319 321 318 319 317 318 318 316 315 311 307 306 305
297 298 299 298 298 298 298 298 301 300 299 300 297 295 295 295 298 301 301 301 301 301 302 302 304 304 304 306 307 307 307 306 299 297 297 303 304 304 303 303 302 302 304 306 306 305 306 306 307 306 304 303 307 307 309 302 301 306 311 314 316 315 311 313 315 316 314 315 320 322 316 315 317 318 317 315 314 315 318 316 315 314 313 315 311
Wind_Speed
4 4 3 4 4 3 3 3 3 3 2 2 2 3 3 3 3 3 3 4 3 4 3 3 3 2 3 3 3 4 4 4 4 6 6 5 5 5 9 8 8 9 10 12 12 13 13 13 13 12 11 11 10 9 8 9 9 8 6 6 7 8 9 8 8 7 6 6 5 5 5 4 4 4 4 4 5 6 5 5 2 3 5 5 7
4 3 4 4 4 3 3 3 3 3 2 3 3 3 3 3 3 3 3 4 3 3 2 3 3 3 2 3 3 3 3 4 4 4 6 6 5 4 8 8 8 9 10 11 12 12 13 13 13 12 11 11 11 11 9 11 9 8 7 7 8 9 9 9 8 7 6 7 6 5 5 5 5 4 4 5 5 4 4 3 3 4 6 6 8
4 4 4 4 3 3 4 3 3 3 3 3 2 3 2 3 3 3 3 3 3 1 2 3 3 3 3 3 3 3 3 3 4 4 5 5 5 4 4 8 8 9 10 11 11 12 13 13 13 13 12 12 12 11 9 10 10 10 8 9 9 10 10 10 8 8 8 7 5 6 6 5 4 5 5 5 6 3 4 4 3 4 7 8 8
4 4 4 4 4 3 4 3 5 3 3 3 3 2 2 2 2 2 2 2 3 3 2 2 3 3 2 3 2 3 3 3 4 4 4 5 5 4 4 4 7 9 10 11 11 12 13 13 13 13 13 12 13 13 11 10 10 10 11 12 12 12 11 11 10 9 9 7 6 6 6 6 5 5 5 5 5 1 2 3 4 6 7 9 8
5 5 4 4 4 4 4 4 4 3 3 3 2 2 3 3 3 2 2 2 3 3 3 2 3 4 3 3 2 3 3 3 3 4 4 4 4 3 3 3 3 6 9 11 11 11 12 13 13 13 13 13 13 13 12 11 10 12 10 13 13 13 12 11 11 10 9 7 7 7 6 6 5 4 5 6 4 1 2 2 4 6 8 9 8
5 5 4 4 4 4 4 4 4 3 2 2 2 1 3 3 3 3 3 3 3 3 3 4 4 3 4 4 4 3 3 4 4 4 4 4 4 4 4 2 2 3 4 8 10 11 12 12 13 13 13 13 13 13 12 12 12 13 11 13 14 13 13 12 11 11 10 8 7 7 6 5 4 4 5 6 4 2 5 1 5 6 9 9 8
5 5 5 4 4 4 4 4 2 2 2 1 1 1 2 3 3 4 4 3 3 3 3 4 4 5 5 5 6 5 3 4 4 4 4 4 4 4 4 4 2 2 3 3 6 9 10 12 12 12 12 13 13 14 13 13 14 13 10 13 15 14 14 12 11 11 11 10 9 8 7 6 5 5 6 6 3 7 7 1 6 7 9 10 9
6 5 5 5 5 4 4 3 2 2 2 1 1 2 2 2 2 2 4 5 5 5 4 5 5 5 5 5 5 5 5 4 4 5 4 3 3 4 4 4 3 3 3 3 3 5 10 10 12 12 12 12 11 14 15 14 14 14 12 14 15 15 13 12 12 12 12 11 10 9 8 7 6 5 6 6 4 3 2 1 5 7 10 10 9
6 6 5 5 4 4 3 3 3 2 2 1 1 1 1 2 2 2 1 3 4 5 6 5 6 6 6 5 5 5 5 5 5 4 4 4 4 4 4 4 4 4 3 2 3 3 6 9 11 13 13 13 12 13 15 15 15 15 14 12 15 13 11 11 12 12 12 11 10 9 8 8 7 6 7 5 4 2 2 1 6 9 11 10 10
6 6 5 5 4 4 3 3 3 2 2 1 1 0 1 1 2 1 2 2 3 4 5 6 5 7 7 6 6 5 6 7 5 4 4 5 4 4 4 4 4 4 3 3 3 3 4 6 9 12 14 14 13 13 14 15 15 16 15 12 12 13 10 9 11 12 12 11 10 9 9 8 8 7 7 5 4 1 2 1 7 9 11 10 10
6 6 5 5 4 3 3 3 3 3 2 1 1 1 0 1 1 2 1 1 2 4 4 4 6 7 7 7 6 7 6 5 4 4 3 4 4 4 3 3 3 3 3 3 3 3 4 4 3 5 7 14 13 13 14 15 15 16 16 14 13 11 12 8 9 13 13 12 11 10 9 8 8 8 8 5 4 0 3 3 8 11 12 11 10
6 6 5 5 4 4 4 3 3 3 2 2 2 2 2 1 1 1 2 2 1 2 3 5 6 6 6 7 6 6 6 5 4 3 3 4 4 3 3 3 3 3 3 3 2 3 4 4 4 4 5 7 12 12 13 14 14 15 16 12 10 10 10 9 11 14 14 13 11 11 10 9 8 9 8 6 3 1 5 3 10 12 13 11 11
6 6 6 5 4 4 3 3 3 3 3 3 3 2 2 1 1 0 1 1 2 2 4 4 6 6 4 5 7 6 6 4 3 3 5 6 4 3 3 3 3 3 2 3 3 3 3 4 4 4 5 5 7 10 12 13 14 14 16 14 14 14 14 12 13 11 15 13 13 12 11 10 9 9 9 7 5 3 4 4 12 13 13 12 11
6 5 5 6 5 4 4 3 3 2 2 2 3 3 3 2 1 2 1 1 2 2 4 4 3 6 7 8 5 5 6 3 2 5 9 6 5 4 3 3 4 3 3 2 3 3 4 4 4 4 5 4 6 7 8 10 12 14 14 16 15 16 16 15 13 8 8 13 13 12 12 11 9 9 8 7 6 4 3 7 13 14 14 12 11
7 6 5 5 5 5 4 3 2 3 3 1 2 2 2 2 2 1 2 1 1 2 3 2 3 5 5 4 4 8 6 6 3 10 9 5 6 6 5 4 5 4 3 3 3 3 3 3 4 4 4 5 4 6 7 8 10 12 14 15 15 17 17 17 15 12 12 11 13 13 13 12 10 9 9 8 7 5 5 9 13 15 14 12 12
6 6 4 4 5 5 3 3 2 3 3 3 2 1 2 2 2 2 1 1 1 2 2 3 1 4 4 2 4 3 5 3 9 8 5 5 6 7 5 4 4 5 4 5 5 4 4 3 4 4 5 5 5 5 5 6 8 10 13 14 16 17 18 17 16 15 11 12 12 15 14 13 11 9 9 8 9 7 6 11 14 16 14 13 12
6 6 6 6 5 5 4 3 3 3 3 3 2 2 2 2 2 1 2 1 2 1 2 4 5 4 2 3 3 2 1 5 8 7 4 8 8 6 4 6 7 6 6 6 6 5 4 5 4 4 5 5 5 5 5 5 6 7 9 13 15 15 15 18 18 15 13 13 15 13 14 14 13 10 10 9 9 7 6 12 15 16 15 14 13
6 6 6 6 6 5 5 5 3 3 3 3 3 3 3 3 3 3 2 1 1 2 2 3 3 4 3 2 2 3 5 5 3 5 5 5 6 3 5 6 4 6 6 6 6 6 4 5 4 4 5 5 5 5 5 5 5 5 6 7 14 14 16 19 19 18 17 17 17 14 13 15 13 12 11 10 10 8 7 13 16 16 15 14 13
6 6 6 5 6 5 6 5 5 4 3 4 4 4 4 3 3 3 3 2 3 2 2 2 3 1 1 2 3 3 2 3 2 5 9 3 3 5 6 5 5 6 6 6 6 6 6 5 6 5 5 5 5 5 5 5 6 8 10 10 12 14 17 20 19 19 18 18 16 13 11 15 15 13 12 11 12 9 8 14 16 16 15 14 13
7 6 6 6 6 6 6 5 5 4 3 5 5 4 4 3 4 4 4 3 3 3 1 1 2 2 1 2 3 3 3 5 5 5 7 9 9 6 4 3 7 6 5 6 7 6 7 7 7 6 5 5 4 5 5 5 5 6 7 13 13 13 15 17 17 17 17 17 16 15 15 13 16 14 13 12 12 10 10 16 17 16 15 14 14
7 7 6 6 5 6 5 5 5 4 4 5 4 5 5 5 4 4 4 3 3 3 2 2 3 2 1 1 2 2 2 3 5 4 4 6 9 6 10 9 3 4 5 7 5 4 6 8 7 6 6 6 4 5 7 7 7 5 7 11 13 14 14 16 16 16 16 17 17 15 13 14 17 15 14 13 13 12 14 18 18 17 16 15 14
5 6 6 6 6 5 5 4 4 5 3 5 5 4 4 4 5 5 5 4 3 4 4 3 2 2 2 2 1 2 2 1 1 2 4 5 8 9 6 9 12 3 6 5 7 7 7 6 7 6 5 5 5 4 6 7 7 7 7 12 12 14 15 15 16 16 16 16 17 17 17 16 18 17 15 14 14 14 15 18 18 18 17 15 15
6 5 6 6 5 4 5 5 4 4 4 4 4 3 3 3 4 4 3 4 4 5 3 2 2 2 3 3 3 3 3 3 4 3 3 5 6 7 5 5 7 13 4 5 8 8 5 5 7 6 5 5 5 5 4 6 8 8 9 10 13 13 15 16 16 16 16 15 15 16 16 16 17 18 16 16 15 15 15 17 19 18 17 16 16
5 6 5 5 5 4 5 4 3 3 3 3 3 4 3 2 3 3 3 4 4 3 2 3 4 4 4 3 3 3 3 4 4 4 3 4 5 8 7 5 6 4 8 8 5 6 6 7 6 5 6 5 5 5 5 5 7 9 9 9 12 13 14 16 16 17 15 14 14 15 16 17 18 18 17 17 14 15 15 18 19 18 17 16 16
5 6 5 6 6 6 4 3 3 3 3 3 3 4 3 3 3 4 4 5 6 5 4 5 5 5 6 4 4 4 5 5 4 4 4 5 5 7 6 6 6 5 5 7 4 3 6 4 4 5 8 7 6 4 4 5 6 7 8 8 10 11 13 16 15 17 15 15 13 11 10 12 16 16 18 17 16 16 17 18 20 18 17 17 16
7 7 7 6 4 4 4 4 4 3 3 4 4 4 4 4 4 4 6 6 5 5 5 6 5 6 4 5 5 5 5 5 5 4 4 3 4 5 5 5 6 6 3 3 4 5 2 3 5 7 7 6 5 5 4 5 5 7 9 8 8 10 12 14 16 16 14 13 10 10 10 13 15 17 17 18 17 18 18 18 21 18 18 18 17
7 6 5 5 5 4 4 4 4 5 4 4 4 4 4 3 4 5 5 5 5 5 5 6 6 7 6 6 6 5 6 6 4 6 4 5 5 4 4 8 6 4 5 2 5 5 7 4 5 5 6 5 6 4 4 4 6 8 8 7 8 9 11 12 15 16 15 14 14 14 15 15 15 14 17 19 19 18 16 19 20 19 18 18 17
6 5 5 6 6 6 5 6 5 5 5 5 5 4 4 4 5 4 6 4 5 6 6 5 6 7 7 6 4 6 6 6 5 5 5 5 5 5 4 4 7 9 4 6 1 3 4 4 3 4 2 6 6 4 6 6 5 8 8 6 7 8 9 11 12 13 15 16 16 15 15 15 16 19 17 19 15 16 16 19 20 20 19 18 18
7 6 6 6 6 6 6 6 5 5 5 5 5 5 5 5 5 5 6 6 5 6 6 6 6 6 5 7 6 6 6 5 5 5 6 4 5 4 6 6 5 6 8 6 5 5 1 2 4 3 3 4 5 5 6 6 7 8 6 6 8 8 8 10 11 12 13 15 17 17 16 17 18 18 14 16 16 14 16 20 21 20 20 19 19
7 6 6 6 6 6 6 5 5 5 6 5 5 6 5 5 6 6 6 5 5 5 5 6 6 5 6 6 6 6 6 6 6 6 6 6 5 5 5 5 6 7 5 7 8 2 6 3 4 4 4 8 6 7 6 7 9 10 6 7 7 8 8 9 11 12 14 14 13 15 17 17 16 17 16 18 17 18 20 22 21 21 20 19 18
6 5 5 5 6 6 5 6 5 6 5 6 6 6 6 5 5 5 5 5 6 6 6 5 6 5 6 7 6 6 6 7 6 6 6 6 6 5 5 4 5 7 8 7 10 3 2 5 4 4 5 7 7 6 6 6 8 10 7 8 8 10 9 8 10 12 14 14 13 13 12 16 18 20 19 19 20 20 22 22 22 21 21 18 16
6 6 7 7 7 7 6 6 6 5 6 6 6 6 5 5 5 5 6 5 5 6 6 5 4 5 6 7 7 7 7 6 6 6 6 6 5 5 5 5 5 6 6 7 8 12 6 6 7 8 6 7 6 7 7 6 7 9 6 8 8 8 7 8 10 12 13 13 12 12 13 15 18 18 21 20 21 20 21 20 20 20 18 16 16
7 7 7 7 6 6 6 6 6 6 6 6 5 5 5 6 6 6 5 5 6 6 6 6 6 6 6 7 7 7 6 7 6 6 6 6 5 5 5 5 5 5 5 7 8 9 9 4 5 6 5 5 5 3 6 7 7 6 6 7 8 8 8 7 7 10 13 13 12 12 13 15 16 15 15 18 19 17 20 19 20 19 18 17 18
6 7 6 5 5 6 6 7 7 6 6 6 6 5 6 6 6 5 5 6 6 7 6 7 7 6 6 7 7 7 7 7 6 6 5 5 5 5 5 5 5 6 5 5 5 6 11 7 5 5 7 4 5 2 6 7 8 7 7 6 7 6 6 7 7 7 11 13 13 12 13 15 16 16 13 16 18 15 16 19 19 19 18 18 18
4 5 6 5 6 7 7 7 7 6 6 7 6 6 6 7 7 6 6 7 7 7 7 8 8 7 7 6 7 7 5 6 6 6 5 6 5 5 6 5 6 6 6 6 5 6 8 10 5 5 5 4 5 7 7 6 6 7 8 9 8 6 5 6 7 7 9 12 13 12 13 14 16 15 14 14 16 17 17 19 19 19 19 19 19
5 5 6 7 7 7 7 6 6 7 7 7 6 6 7 7 7 8 8 7 7 8 8 8 8 7 8 7 7 7 7 7 6 6 5 5 5 5 6 5 5 6 5 5 6 6 6 9 6 5 5 7 7 5 6 6 6 6 6 8 9 8 7 6 7 8 8 11 12 11 12 14 15 15 16 14 18 17 18 19 19 20 20 19 19
5 4 4 5 6 6 6 7 7 7 7 7 7 7 7 7 8 8 8 8 8 8 9 9 8 8 8 8 8 8 7 7 6 6 5 6 5 5 5 5 6 5 4 5 5 5 7 9 9 5 5 6 6 7 5 5 5 5 6 7 7 7 8 7 7 7 9 10 11 11 12 14 16 18 19 18 21 21 20 20 20 21 21 20 19
5 5 6 6 6 7 7 8 7 7 7 7 7 8 8 8 7 7 7 8 8 9 9 9 9 9 8 9 9 8 8 8 8 7 6 8 6 6 6 6 6 5 5 5 5 5 6 7 8 7 4 6 6 6 5 4 5 6 6 6 6 7 7 7 7 6 6 5 5 5 8 11 14 17 18 18 21 22 21 20 21 21 21 21 20
3 5 5 5 4 5 6 5 5 6 6 6 6 7 7 7 8 8 8 8 9 8 9 10 9 9 9 9 9 8 9 9 8 8 8 8 7 8 8 7 6 6 6 6 5 5 5 6 6 7 6 5 6 7 4 4 5 5 6 7 7 5 5 6 7 6 6 5 7 10 10 9 11 11 16 19 21 22 22 20 20 21 22 21 20
2 1 2 3 3 2 2 3 3 4 5 5 6 6 7 7 7 8 8 8 9 9 10 10 9 10 10 10 9 9 9 10 10 9 9 8 7 8 7 7 7 7 7 6 5 5 5 5 5 6 4 4 5 4 3 4 5 4 4 4 6 9 7 5 5 7 5 5 5 5 6 6 5 11 14 19 22 23 23 21 21 20 21 21 21
3 3 1 1 3 4 4 3 4 5 5 6 5 6 6 8 7 9 9 9 10 10 10 10 10 9 8 8 9 9 9 13 14 12 11 9 8 9 8 8 8 7 7 5 5 5 4 5 5 4 5 5 5 5 5 5 5 7 5 4 6 7 7 8 6 5 5 5 5 5 6 6 6 6 5 7 12 19 19 21 18 22 22 21 21
3 2 3 2 2 3 4 4 4 4 4 4 6 10 10 7 8 7 8 8 8 9 9 10 10 9 9 9 8 14 16 17 17 17 17 16 15 11 9 9 9 8 7 7 6 5 5 6 6 5 6 5 4 5 5 5 6 5 6 5 7 7 7 7 8 4 4 4 5 6 6 6 7 8 8 12 10 16 10 11 11 15 19 22 21
3 3 1 3 3 3 4 4 5 4 4 4 8 10 11 13 10 8 8 8 9 9 9 10 11 9 9 9 8 11 14 15 14 17 16 16 16 17 18 15 11 9 8 8 7 6 6 6 6 6 6 6 6 5 5 6 6 6 6 5 6 6 7 7 8 3 4 7 5 5 6 7 8 9 9 11 10 12 12 12 18 20 21 21 21
4 4 5 5 4 4 4 5 5 6 5 7 11 11 12 13 11 9 7 8 8 9 9 9 9 9 10 9 8 7 8 9 9 10 13 15 16 16 17 17 16 15 13 10 8 7 7 7 7 8 7 7 6 5 5 4 6 6 6 6 6 6 7 8 6 7 2 8 6 5 6 6 8 9 8 10 8 10 14 16 21 20 21 21 21
4 6 6 5 5 5 5 7 7 6 6 8 12 13 13 14 14 12 7 7 8 10 10 9 9 9 8 7 8 7 7 14 13 10 9 9 13 15 15 16 16 15 15 15 14 12 9 9 9 10 9 6 7 7 5 4 6 9 5 5 5 6 6 8 8 8 4 7 5 4 5 7 9 9 11 11 13 11 13 17 22 22 22 21 21
5 6 5 6 6 6 6 7 8 8 8 8 12 13 14 16 16 14 11 10 10 10 10 11 10 9 8 8 7 8 7 8 8 9 8 8 7 8 9 9 9 12 15 16 17 18 14 11 12 11 8 7 9 8 7 8 7 7 6 7 6 6 6 8 8 7 3 5 8 6 4 5 7 8 9 9 10 11 11 16 23 22 21 22 21
6 7 7 7 6 7 7 8 7 8 6 10 13 15 15 16 17 14 10 10 8 8 8 8 8 8 8 8 9 9 8 8 7 9 8 8 8 8 9 10 12 12 12 12 11 8 8 8 11 11 10 8 8 9 8 7 8 8 7 8 8 8 8 8 7 4 3 6 8 6 7 6 7 9 9 8 8 11 9 16 22 21 21 21 21
6 6 6 6 7 8 8 8 8 9 8 11 13 15 16 15 16 9 10 9 9 8 8 7 7 7 8 8 8 8 8 8 10 14 13 10 9 10 11 12 12 11 11 11 13 14 11 9 9 10 10 10 11 11 9 8 8 6 6 7 6 7 7 7 7 4 4 4 6 6 5 4 7 9 8 7 9 11 10 10 18 22 21 20 21
7 7 7 7 6 7 8 7 9 9 9 10 14 15 16 17 12 7 8 8 9 10 9 8 8 8 8 8 8 8 9 9 11 14 15 14 11 12 11 12 10 9 10 10 14 16 17 17 17 18 17 16 16 16 15 15 12 7 4 5 7 5 6 6 6 6 7 3 5 6 3 4 6 6 5 5 7 10 11 13 12 17 20 20 20
7 7 7 6 6 6 7 9 9 10 10 11 15 16 16 17 13 9 8 8 9 9 8 8 8 8 10 17 16 12 11 11 14 16 16 14 10 11 11 11 12 11 11 9 8 9 15 18 18 18 17 17 17 17 17 17 15 8 6 9 6 5 7 6 7 6 6 4 5 5 2 3 5 5 6 5 5 2 8 9 12 12 17 17 20
8 6 6 6 7 6 7 9 14 14 11 11 15 16 17 17 13 7 7 8 9 8 8 9 8 7 8 11 19 18 16 13 15 17 18 16 14 12 13 12 13 13 11 10 10 10 10 9 8 10 11 12 12 10 11 17 16 12 10 10 7 7 8 7 6 6 7 5 4 8 4 1 6 5 7 6 3 2 4 6 12 12 11 9 10
Wind_Direction
229 235 210 226 239 231 212 221 210 230 206 262 235 275 287 284 278 278 288 285 285 285 286 288 293 303 307 312 321 324 326 324 320 319 317 318 316 301 293 268 218 209 209 210 214 220 224 228 229 228 224 220 224 226 211 213 221 210 205 235 229 208 215 217 218 233 229 230 241 253 260 287 293 312 309 305 308 329 1 4 8 89 110 124 118
227 218 202 240 237 238 237 238 233 230 199 242 228 232 255 277 273 270 270 272 269 270 286 298 305 303 300 311 319 321 313 312 314 313 311 318 318 310 300 281 229 210 214 218 221 223 225 226 227 228 226 220 223 224 212 209 226 201 203 215 213 216 213 221 219 227 225 229 236 250 265 269 290 313 306 300 303 350 356 19 44 109 128 130 119
218 225 220 240 240 245 251 263 265 238 215 239 216 224 233 239 256 268 279 286 283 281 298 298 300 303 310 315 310 312 308 301 303 301 302 308 317 314 300 289 258 222 215 220 223 227 229 227 225 224 228 223 223 226 227 214 227 212 191 200 207 217 217 219 215 210 220 231 238 244 256 268 287 296 299 298 310 19 13 13 62 110 133 130 118
211 222 223 229 236 235 260 264 262 258 225 230 232 229 233 249 269 285 280 300 308 312 284 285 305 301 305 297 295 294 289 292 288 288 285 288 298 304 299 285 286 254 229 225 224 228 232 232 228 225 226 226 226 226 236 227 226 217 200 194 206 214 215 216 209 207 220 223 229 238 248 264 273 283 292 298 317 65 14 42 90 125 135 130 123
205 210 212 213 218 225 239 240 255 264 259 257 273 330 342 342 337 331 299 290 325 323 325 311 316 318 314 305 297 286 284 281 275 277 276 278 285 287 289 286 263 276 257 235 228 229 232 236 235 231 226 229 224 228 230 236 227 220 213 194 205 211 209 211 207 208 217 215 224 233 243 256 265 277 281 294 315 39 18 40 112 136 140 132 128
189 201 199 198 203 211 226 248 245 249 243 221 257 339 326 332 324 345 334 352 335 324 336 332 326 313 312 312 302 285 282 285 281 272 274 279 278 286 286 275 266 248 257 252 239 233 234 234 237 236 232 233 229 228 230 231 226 221 232 202 205 208 208 207 204 205 209 210 219 227 239 250 263 269 275 277 293 34 9 13 150 149 146 137 132
188 184 195 190 195 209 222 235 237 217 236 251 222 332 12 323 338 341 327 341 343 327 348 326 322 325 325 325 316 316 301 289 291 288 276 275 280 284 294 290 286 257 245 244 254 251 241 237 237 236 236 235 233 228 229 227 228 229 229 199 205 207 209 202 200 201 208 212 218 225 232 242 250 260 266 267 283 89 297 348 155 152 150 145 135
183 178 182 190 192 203 219 225 216 190 211 245 228 285 346 346 339 350 338 330 348 335 347 330 325 319 325 322 312 313 312 308 297 294 293 284 278 283 283 286 284 276 260 246 244 249 255 250 240 235 234 233 231 231 231 228 227 228 231 206 207 208 209 200 196 201 209 213 216 223 228 240 247 253 258 266 284 150 185 25 166 156 156 149 132
179 177 178 185 192 193 213 222 206 185 189 189 226 288 350 322 348 19 37 314 336 330 330 331 321 324 327 315 310 309 305 306 300 298 306 289 282 271 277 276 279 279 274 264 257 259 257 253 252 246 237 234 229 229 231 232 229 230 232 214 206 215 217 204 195 202 212 213 217 219 226 234 243 240 251 265 279 107 36 195 171 157 160 147 135
174 176 181 182 182 178 194 195 175 158 157 159 210 242 350 6 329 356 347 332 333 333 322 323 325 326 322 314 309 305 299 298 300 308 311 304 293 282 271 273 276 276 277 269 264 262 261 258 258 255 248 238 231 227 228 230 232 232 232 232 218 215 227 222 204 205 211 217 215 219 224 235 238 239 244 250 265 227 180 109 165 161 155 146 138
171 168 170 167 157 170 163 173 161 152 147 158 178 214 233 113 257 298 344 304 308 316 313 318 320 318 313 307 311 303 290 282 293 304 306 298 291 290 284 269 267 270 271 260 249 259 260 260 254 253 252 246 235 229 227 230 229 231 233 230 228 217 228 198 241 214 211 213 213 215 222 230 236 240 241 238 252 232 289 205 172 160 154 147 142
167 165 166 161 169 179 172 131 148 140 144 156 177 198 210 235 243 259 323 331 298 319 325 329 312 308 303 308 301 299 294 300 307 308 306 299 300 297 294 294 276 281 275 276 272 252 256 262 257 250 252 253 247 235 229 228 227 226 229 234 235 231 231 227 228 221 211 208 210 211 215 220 231 236 239 233 193 4 288 217 167 159 152 147 143
161 159 169 170 169 149 128 144 158 152 148 181 194 184 201 167 122 10 278 356 328 16 344 329 319 324 297 297 309 311 292 322 323 326 338 335 326 318 314 316 307 300 310 307 286 274 262 258 254 252 251 253 250 244 235 230 228 226 227 214 223 221 220 226 243 239 203 209 207 208 210 214 221 233 236 232 175 205 253 173 166 157 153 149 145
154 165 163 159 148 150 149 155 159 152 149 145 148 135 124 118 114 50 49 31 343 0 338 338 14 355 330 329 318 309 303 1 30 353 349 340 339 337 333 333 327 332 324 300 290 281 274 266 255 251 248 245 248 245 241 235 233 228 226 224 218 223 224 225 228 238 242 223 219 211 208 211 216 227 233 228 186 204 224 171 165 157 152 151 145
156 160 163 152 152 151 161 152 162 155 135 122 100 105 121 119 130 91 342 131 7 300 335 31 339 324 293 306 342 345 343 353 328 341 338 331 336 353 355 349 352 347 332 320 310 299 285 275 270 259 252 241 239 238 240 236 234 227 225 224 216 225 230 225 216 212 228 239 229 224 218 208 211 219 227 225 186 195 193 165 161 156 153 150 145
145 144 141 124 143 152 138 154 151 168 156 147 128 110 107 107 117 142 186 339 43 294 341 7 301 344 6 359 305 341 326 349 328 312 309 324 346 341 360 5 3 346 348 341 329 325 309 294 276 269 260 255 242 232 233 233 230 230 228 226 223 219 230 234 224 205 209 226 232 234 224 213 208 211 223 223 191 188 188 167 161 157 152 149 146
143 145 144 145 133 133 142 137 137 165 144 136 140 134 107 114 132 150 200 149 287 71 336 30 7 358 330 333 342 351 283 310 337 302 359 350 334 335 334 3 2 355 352 334 322 320 314 303 291 279 270 261 251 242 238 231 230 225 227 226 224 220 221 237 231 216 200 217 234 230 230 219 211 204 216 223 198 180 191 166 160 155 151 149 148
141 145 149 139 147 146 138 133 143 159 155 124 130 124 123 123 140 148 185 213 265 4 304 342 351 330 317 230 208 286 314 332 330 308 332 287 266 313 357 353 355 351 336 326 325 322 320 310 300 289 277 265 257 251 240 239 231 226 226 224 221 214 212 228 232 223 209 202 219 223 227 225 211 202 209 215 188 187 180 167 157 154 153 152 150
139 138 141 140 135 138 140 137 132 143 147 132 134 147 140 134 137 143 151 133 136 174 224 282 324 14 46 333 305 308 299 321 322 312 312 327 337 331 330 327 347 340 327 320 318 318 319 317 309 298 284 269 260 252 246 240 233 231 229 228 223 219 214 222 228 225 223 216 215 206 222 235 213 200 206 195 184 195 190 164 156 155 157 155 151
137 139 142 141 136 132 128 128 124 143 151 151 148 150 113 112 123 138 136 137 150 147 199 199 136 269 346 324 309 307 295 278 275 308 300 298 308 309 269 347 328 321 307 317 315 318 321 322 314 305 295 277 264 257 249 244 236 234 234 232 226 224 222 224 225 225 224 223 217 218 215 227 217 202 204 192 183 185 186 162 156 159 158 154 154
140 145 147 144 144 143 142 143 142 162 152 136 125 135 137 142 146 148 160 155 154 164 164 184 173 224 26 348 330 301 289 276 280 266 280 305 298 308 319 314 251 273 328 307 294 295 310 308 304 299 295 291 275 266 265 260 252 233 234 234 232 225 224 228 227 225 224 224 219 213 216 221 223 204 205 192 186 179 176 164 161 161 158 157 157
143 145 147 150 141 145 151 148 156 161 143 146 141 140 150 161 175 172 158 142 176 184 190 174 167 170 194 198 211 286 308 309 266 288 281 257 284 303 311 318 320 308 322 311 323 319 306 301 298 296 293 290 290 272 270 263 257 253 240 236 232 229 224 228 229 227 224 223 223 214 207 211 215 211 203 191 190 182 183 165 162 162 162 160 160
156 158 150 145 142 158 152 183 158 144 132 146 168 183 183 183 175 167 167 170 180 197 181 167 164 174 200 203 207 205 213 226 248 263 260 282 298 295 303 292 290 306 310 320 319 310 296 290 296 300 298 292 285 280 268 265 261 253 241 234 240 232 229 227 230 228 225 222 221 222 216 212 221 215 202 192 191 191 179 167 160 164 165 163 162
161 157 150 146 154 157 170 150 136 139 180 175 186 194 188 157 166 179 209 214 223 217 192 215 213 199 211 192 214 209 217 221 235 229 224 265 274 288 295 303 287 255 300 307 269 273 303 295 291 294 290 289 283 276 275 270 268 258 255 245 240 238 233 232 228 233 225 221 216 220 219 212 219 214 203 191 189 185 177 175 158 163 166 166 164
183 175 175 172 171 166 163 161 182 193 198 176 213 203 197 190 196 212 222 237 235 228 236 239 235 234 247 209 196 191 216 225 222 227 243 254 263 285 282 280 286 297 300 309 305 300 285 288 297 287 300 293 297 293 280 272 271 267 255 260 244 238 237 238 232 233 229 220 216 215 223 220 225 212 198 191 189 180 183 174 160 162 167 168 167
181 189 182 173 167 189 184 194 199 195 197 206 216 218 199 203 214 219 230 236 233 230 230 241 238 238 225 244 226 211 228 227 218 209 230 233 254 259 283 281 286 290 281 287 302 328 316 305 291 293 290 295 308 304 294 282 282 271 261 261 256 239 239 241 242 238 237 234 229 223 209 223 233 214 203 188 190 189 183 176 159 163 168 171 170
182 191 168 161 185 190 199 196 197 205 208 215 223 221 212 213 221 228 244 240 237 234 240 234 245 244 237 225 241 232 235 233 196 225 217 222 230 246 260 299 299 271 289 254 292 261 278 287 288 287 283 314 310 317 307 301 293 288 285 269 265 249 236 239 246 245 236 223 216 220 207 211 223 216 212 191 190 189 181 168 160 164 169 173 171
182 169 180 169 185 195 198 206 203 203 207 212 218 220 212 206 231 230 243 233 233 240 246 245 250 251 250 250 230 246 241 240 219 230 216 221 224 240 236 252 291 302 298 294 238 274 261 275 294 272 309 314 315 317 321 310 302 301 288 277 270 262 238 235 240 246 243 234 227 223 215 202 220 216 213 197 183 191 176 168 162 166 172 175 170
177 183 173 188 192 192 194 206 205 206 207 212 210 215 206 209 223 226 235 238 225 240 242 235 242 247 247 246 239 251 255 243 242 230 231 225 224 225 226 235 237 275 303 298 297 291 277 293 311 290 300 312 315 319 318 306 306 300 289 280 277 267 248 229 233 238 242 238 233 229 221 200 209 212 211 207 188 188 176 168 167 171 173 176 173
178 179 177 186 195 193 194 207 208 200 211 210 209 214 205 214 220 224 232 228 231 236 232 229 239 236 239 245 234 242 245 240 241 236 230 225 226 224 225 230 226 242 261 293 294 235 283 251 223 283 311 310 306 304 303 300 299 297 279 277 272 269 249 232 229 232 237 240 234 229 223 211 214 211 199 207 195 184 181 172 170 173 174 178 175
176 177 171 186 191 199 198 209 202 210 208 214 209 212 204 216 219 226 228 213 219 236 239 224 233 226 235 246 247 246 246 245 239 241 233 226 230 225 228 215 223 228 246 262 290 272 196 296 282 251 291 296 297 296 300 296 297 295 285 277 270 262 253 243 233 231 236 237 232 224 222 198 204 215 202 204 192 196 182 175 174 176 176 177 169
182 174 181 192 195 195 199 205 210 212 214 220 211 212 201 213 219 219 226 209 215 228 244 231 229 227 234 242 245 247 249 241 243 239 239 233 226 227 226 218 220 223 230 246 252 279 264 270 282 289 266 280 294 297 297 298 294 288 281 278 271 270 259 252 237 233 237 236 229 214 198 199 204 214 204 205 200 198 184 175 174 174 173 170 161
179 183 192 197 194 196 194 199 207 211 211 218 209 205 202 217 223 226 235 222 225 234 231 244 232 227 230 236 243 247 243 246 246 247 243 239 227 228 229 221 228 224 215 234 256 275 286 210 249 273 286 293 288 243 290 299 303 300 284 277 283 282 274 259 250 233 234 238 231 214 205 205 205 207 207 201 198 201 181 175 169 170 169 164 163
181 187 190 193 188 193 196 203 204 202 204 211 212 202 214 224 236 220 224 224 228 238 231 243 243 239 233 236 245 246 237 238 243 249 245 248 244 240 236 227 232 244 217 239 243 260 283 288 276 275 285 235 271 237 289 300 302 302 294 289 283 270 262 263 252 245 226 234 231 219 212 208 207 198 206 199 193 187 181 172 168 167 168 164 165
161 175 191 189 200 195 202 200 193 200 209 217 220 211 220 223 228 230 223 219 226 234 234 238 238 240 242 238 242 242 239 236 231 239 237 240 234 237 245 234 239 232 232 221 238 261 272 281 269 271 271 266 260 290 290 277 277 290 292 293 290 280 258 257 252 251 231 227 229 223 213 210 208 201 189 200 185 183 179 173 169 165 165 164 166
181 207 202 201 200 200 193 194 199 210 215 221 221 214 219 217 221 225 227 225 225 232 235 238 238 232 232 239 238 236 238 242 244 242 235 231 230 234 240 247 242 252 242 236 226 245 268 280 277 261 282 292 285 266 279 278 281 285 282 287 284 277 269 258 251 254 242 227 229 222 213 208 205 198 187 194 179 181 178 174 169 165 164 165 167
199 191 220 202 191 186 192 201 212 214 221 219 220 221 221 222 224 227 229 229 229 230 232 230 231 228 229 230 237 235 230 232 235 237 234 233 227 223 232 238 242 239 248 238 239 230 249 264 279 260 260 274 275 281 266 284 284 282 289 285 285 283 274 261 258 249 247 227 228 221 209 208 202 196 191 191 179 180 178 174 169 166 164 166 168
193 203 204 199 189 198 206 213 216 224 223 222 222 224 225 226 229 232 232 234 235 231 232 229 227 228 228 229 229 226 225 222 232 230 229 237 238 234 224 232 234 236 239 247 237 240 240 255 271 286 250 272 284 276 277 261 278 292 298 288 278 270 269 270 258 250 246 228 232 235 223 214 209 196 195 186 182 176 177 174 171 167 165 167 169
193 195 206 204 237 225 232 236 237 237 238 231 232 235 238 239 239 238 238 239 239 237 235 233 232 229 228 228 231 229 229 229 232 234 235 239 237 242 232 225 225 219 231 235 234 238 240 253 268 269 274 255 260 282 275 260 267 268 288 305 299 288 272 269 269 248 231 227 227 220 222 210 201 199 196 182 179 174 173 175 173 169 166 167 169
44 354 328 281 280 283 293 295 288 283 263 249 245 243 242 243 244 245 242 242 244 242 242 240 238 235 230 228 227 229 228 232 234 235 231 239 236 246 237 227 221 223 227 230 233 233 243 245 249 275 268 271 272 265 286 293 290 275 249 262 290 300 294 267 246 255 217 213 220 226 234 228 187 201 193 183 178 174 172 173 172 168 168 168 168
39 48 116 42 349 348 318 277 256 251 251 252 249 249 252 249 244 249 247 246 244 247 246 244 242 239 237 234 234 231 230 234 231 231 230 222 232 241 239 224 227 223 229 223 227 226 233 244 255 256 269 263 264 280 285 275 257 272 273 265 273 276 284 288 268 221 219 210 214 212 210 183 178 166 161 180 182 175 171 170 171 170 170 170 169
29 3 29 35 237 240 265 267 265 259 260 260 253 251 251 253 252 249 250 247 246 245 247 248 245 241 239 237 236 235 236 237 239 240 241 238 236 234 233 225 230 225 223 225 222 218 228 241 246 247 263 259 250 258 264 258 267 275 278 269 273 281 289 285 283 249 215 216 193 210 207 182 174 172 171 189 170 177 164 167 169 175 172 171 170
332 303 249 240 248 234 243 256 268 263 256 254 257 258 260 260 260 260 252 253 247 246 244 244 246 240 238 233 232 239 241 242 244 245 246 246 245 243 240 231 220 219 228 228 230 218 229 237 242 233 237 256 243 243 257 274 270 263 261 266 273 284 291 299 295 299 196 196 207 206 211 181 174 176 183 193 174 176 166 173 169 170 171 172 170
255 252 258 253 256 253 249 246 247 246 253 257 262 266 266 266 262 258 254 253 252 248 243 240 241 238 237 235 231 227 232 236 240 247 250 250 249 246 242 240 238 232 228 228 237 236 223 239 239 237 238 242 246 229 257 262 268 268 255 260 268 280 286 285 278 273 253 188 196 200 211 176 192 190 185 190 174 173 174 169 167 171 169 171 170
257 247 243 246 251 249 252 253 250 244 248 243 249 258 262 262 262 260 250 248 246 249 247 242 238 235 231 231 237 232 235 239 243 245 244 250 252 249 244 243 243 238 237 239 237 241 241 238 244 250 234 231 238 235 216 244 252 265 268 267 271 276 278 282 277 272 257 212 213 195 197 186 188 194 195 186 183 170 171 166 168 169 169 170 169
249 254 258 258 255 247 241 242 246 247 245 246 249 253 256 258 260 260 262 258 252 248 244 242 240 237 232 233 236 238 225 230 235 238 241 239 239 245 247 244 245 248 248 241 238 238 236 239 242 246 237 208 240 236 223 238 247 262 274 276 277 276 279 279 283 281 287 172 220 199 201 183 193 190 199 174 181 168 171 169 167 167 170 168 169
239 241 243 248 243 237 240 243 249 250 248 244 245 247 250 255 259 263 266 267 264 260 258 254 252 250 246 240 239 241 237 228 220 223 231 233 238 242 244 248 251 251 249 251 246 233 221 226 236 240 240 227 235 237 235 232 236 241 243 261 271 273 278 283 278 243 257 201 222 224 219 191 181 193 195 168 176 167 165 163 168 166 167 168 167
239 244 247 240 247 249 250 253 256 260 255 244 248 251 252 255 257 256 262 263 264 262 255 248 244 242 243 240 241 242 237 232 226 226 232 237 239 244 245 247 249 247 248 242 240 240 233 227 227 232 233 227 228 231 226 231 240 240 251 257 256 264 281 285 281 275 246 222 209 236 235 187 182 194 193 170 172 162 157 150 170 164 165 167 167
248 247 246 245 250 256 257 253 258 262 261 248 247 249 250 251 251 251 253 254 257 258 256 246 240 237 235 233 233 240 241 240 232 226 231 236 244 243 242 245 246 248 250 251 241 237 237 236 233 233 231 226 227 230 228 228 230 231 247 251 247 248 257 271 273 269 262 213 206 215 274 216 187 187 164 138 171 164 159 165 157 165 163 167 166
264 260 262 263 258 254 254 256 250 257 260 251 247 247 246 246 241 243 246 249 255 255 257 249 248 244 244 243 240 236 237 237 235 231 230 230 237 241 244 246 248 248 251 247 250 240 235 237 236 236 233 230 230 230 229 230 232 219 210 229 222 227 247 250 269 268 275 232 224 171 211 248 174 172 149 127 139 249 161 143 153 159 162 167 165
269 270 266 265 261 250 246 251 255 259 260 251 241 243 244 244 243 237 243 254 256 253 255 255 251 248 250 247 249 252 252 245 235 230 229 229 241 239 243 244 246 247 244 247 244 246 245 241 239 237 244 238 236 228 228 229 226 208 211 225 221 222 242 248 253 276 280 258 203 155 196 229 185 186 153 139 149 84 150 163 146 150 160 162 160